This demonstration page uses our WeatherBlox Daily Observations layout. Learn more.

Left ArrowRight Arrow

39.95238, -75.16362

Hourly Observations for June 23, 2022

Temp ( °F °C ) Dew Point ( °F °C ) Humidity (%) Winds ( mph kmh ) Pressure ( in mb ) Visibility ( mi km ) Precip ( " mm )
12:10 am 00:10 Cloudy 67 19.4 61 16.1 81 81 E 12 19 29.99 1016 10 16 0.00 0.00
12:28 am 00:28 Cloudy 69 20.6 62 16.7 78 78 ESE 8 13 29.98 1015 7 11 0.00 0.00
12:54 am 00:54 Cloudy 67 19.4 61 16.1 81 81 ESE 10 17 29.97 1015 7 11 0.00 0.00
1:15 am 01:15 Cloudy 66 18.9 61 16.1 84 84 E 10 17 29.97 1015 10 16 0.00 0.00
1:54 am 01:54 Cloudy 66 18.9 61 16.1 84 84 ESE 10 17 29.95 1014 10 16 0.00 0.00
2:54 am 02:54 Cloudy 66 18.9 61 16.1 84 84 SE 7 11 29.94 1014 10 16 0.00 0.00
3:54 am 03:54 Cloudy 65 18.3 60 15.6 84 84 ESE 12 19 29.93 1014 10 16 0.00 0.00
4:50 am 04:50 Cloudy 64 18 61 16 88 88 E 6 9 29.93 1014 10 16 0.00 0.00
4:54 am 04:54 Cloudy 65 18.3 61 16.1 87 87 E 6 9 29.93 1013 10 16 0.00 0.00
5:24 am 05:24 Cloudy with Light Rain 65 18.3 61 16.1 87 87 E 9 15 29.92 1013 10 16 0.00 0.00
5:38 am 05:38 Cloudy with Light Rain 65 18.3 61 16.1 87 87 E 10 17 29.92 1013 10 16 0.00 0.00
5:54 am 05:54 Cloudy with Light Rain 65 18.3 61 16.1 87 87 E 9 15 29.92 1013 10 16 0.00 0.00
6:30 am 06:30 Cloudy 65 18.3 61 16.1 87 87 ENE 5 7 29.92 1013 10 16 0.00 0.00
6:54 am 06:54 Cloudy with Light Rain 65 18.3 62 16.7 90 90 E 8 13 29.92 1013 10 16 0.00 0.00
7:54 am 07:54 Cloudy 66 18.9 62 16.7 87 87 E 9 15 29.92 1013 10 16 0.00 0.00
8:04 am 08:04 Cloudy 67 19.4 62 16.7 84 84 E 9 15 29.93 1014 10 16 0.00 0.00
8:54 am 08:54 Cloudy 67 19.4 62 16.7 84 84 NE 7 11 29.93 1014 10 16 0.00 0.00
9:54 am 09:54 Cloudy with Light Rain 67 19.4 62 16.7 84 84 ENE 5 7 29.95 1014 10 16 0.01 0.25
10:05 am 10:05 Cloudy with Rain 67 19.4 62 16.7 84 84 VRB 5 7 29.95 1014 6 10 0.01 0.25
10:11 am 10:11 Cloudy with Rain 67 19.4 62 16.7 84 84 N 5 7 29.95 1014 4 6 0.02 0.51
10:54 am 10:54 Cloudy with Rain 67 19.4 63 17.2 87 87 VRB 6 9 29.96 1015 4 6 0.11 2.79
11:21 am 11:21 Cloudy with Rain 67 19.4 63 17.2 87 87 VRB 6 9 29.97 1015 3 5 0.07 1.78
11:31 am 11:31 Cloudy with Rain 67 19.4 64 17.8 91 91 NNW 7 11 29.97 1015 4 6 0.10 2.54
11:46 am 11:46 Cloudy with Light Rain 67 19.4 64 17.8 91 91 N 6 9 29.97 1015 5 8 0.12 3.05
11:54 am 11:54 Cloudy with Rain 67 19.4 64 17.8 91 91 ENE 3 6 29.96 1015 5 8 0.13 3.30
12:20 pm 12:20 Cloudy with Rain 67 19.4 63 17.2 87 87 NNE 3 6 29.97 1015 5 8 0.06 1.52
12:37 pm 12:37 Cloudy with Light Rain 68 20 63 17.2 84 84 N 5 7 29.97 1015 7 11 0.08 2.03
12:54 pm 12:54 Cloudy 68 20 63 17.2 84 84 VRB 3 6 29.97 1015 10 16 0.08 2.03
1:54 pm 13:54 Cloudy 69 20.6 64 17.8 84 84 NE 7 11 29.98 1015 10 16 0.00 0.00
2:54 pm 14:54 Mostly Cloudy 71 21.7 61 16.1 71 71 VRB 6 9 29.97 1015 10 16 0.00 0.00
3:54 pm 15:54 Cloudy 72 22.2 61 16.1 68 68 NE 5 7 29.96 1015 10 16 0.00 0.00
4:54 pm 16:54 Mostly Cloudy 73 22.8 62 16.7 69 69 N 9 15 29.95 1014 10 16 0.00 0.00
5:54 pm 17:54 Mostly Cloudy 72 22.2 61 16.1 68 68 NW 7 11 29.94 1014 10 16 0.00 0.00
6:54 pm 18:54 Cloudy 73 22.8 61 16.1 66 66 NW 9 15 29.95 1014 10 16 0.00 0.00
7:54 pm 19:54 Cloudy 71 21.7 61 16.1 71 71 N 9 15 29.96 1015 10 16 0.00 0.00
8:54 pm 20:54 Mostly Cloudy 70 21.1 61 16.1 73 73 N 7 11 29.96 1015 10 16 0.00 0.00
9:54 pm 21:54 Mostly Cloudy 69 20.6 61 16.1 76 76 N 7 11 29.98 1015 10 16 0.00 0.00
10:54 pm 22:54 Mostly Cloudy 68 20 61 16.1 78 78 NNE 3 6 29.99 1016 10 16 0.00 0.00
11:54 pm 23:54 Mostly Clear 67 19.4 62 16.7 84 84 ESE 5 7 29.98 1015 10 16 0.00 0.00

Powered by AerisWeather